JCSAT-4A

Last updated on Oct. 31, 2020, 5:53 a.m. UTC

1 25630U 99006A   20304.88979281 -.00000300  00000-0  00000-0 0  9995
2 25630   4.8963  73.1038 0011337 185.9133 237.0175  1.00272781 30001
UTC
Height (km)
Latitude
Longitude
Inclination
Orbital Period
UTC large
Height (km)
Speed (km/s)
/
Latitude / Longitude
Inclination (degrees)
Orbital Period (minutes)
Azimuth
Elevation
Range (km)
Doppler Factor
iOS Compass Heading
iOS Angle

Next 30 passes for location: Hong Kong

Rise time Rise Azimuth (degrees) Set time Set Azimuth (degrees) Duration Max altitude (degrees)

No matching passes for this satellites